| time (UTC) | temp F | wind direction | speed MPH | gust MPH | rain 1hr in | rain 24hr in | rain mn in | humidity % | barometer mb |
| 20260504110544 | 43 | 95 | 2.0 | 9.0 | 0.01 | 0.02 | 0.02 | 94 | 1015.0 |
| 20260504100543 | 43 | 57 | 0.0 | 7.0 | 0.01 | 0.01 | 0.01 | 94 | 1015.0 |
| 20260504090106 | 42 | 312 | 1.0 | 5.0 | 0.00 | 0.00 | 0.00 | 93 | 1015.3 |
| 20260504081600 | 43 | 0 | 3.0 | 16.0 | 0.00 | 0.00 | 0.00 | 93 | 1016.1 |
| 20260504081044 | 43 | 123 | 2.0 | 8.0 | 0.00 | 0.00 | 0.00 | 93 | 1016.1 |
| 20260504080545 | 43 | 114 | 2.0 | 6.0 | 0.00 | 0.00 | 0.00 | 93 | 1016.2 |
| 20260504060106 | 43 | 135 | 1.0 | 6.0 | 0.00 | 0.00 | 0.00 | 90 | 1015.4 |
| 20260504050548 | 44 | 350 | 1.0 | 8.0 | 0.00 | 0.00 | 0.00 | 91 | 1016.1 |
| 20260504050112 | 44 | 0 | 2.0 | 9.0 | 0.00 | 0.00 | 0.00 | 90 | 1015.7 |
| 20260504045549 | 44 | 126 | 2.0 | 9.0 | 0.00 | 0.00 | 0.00 | 90 | 1016.0 |
| 20260504045048 | 44 | 0 | 2.0 | 6.0 | 0.00 | 0.00 | 0.00 | 90 | 1015.9 |
| 20260504044551 | 44 | 66 | 1.0 | 6.0 | 0.00 | 0.00 | 0.00 | 90 | 1015.6 |
| 20260504044052 | 44 | 52 | 0.0 | 3.0 | 0.00 | 0.00 | 0.00 | 90 | 1015.9 |
| 20260504043548 | 44 | 0 | 1.0 | 3.0 | 0.00 | 0.00 | 0.00 | 90 | 1015.6 |
| 20260504043101 | 44 | 90 | 1.0 | 4.0 | 0.00 | 0.00 | 0.00 | 90 | 1015.7 |
| 20260504042548 | 44 | 76 | 1.0 | 8.0 | 0.00 | 0.00 | 0.00 | 90 | 1015.7 |
| 20260504042045 | 44 | 320 | 1.0 | 8.0 | 0.00 | 0.00 | 0.00 | 89 | 1015.6 |
| 20260504041549 | 44 | 314 | 2.0 | 8.0 | 0.00 | 0.00 | 0.00 | 90 | 1015.7 |
| 20260504041046 | 44 | 15 | 2.0 | 8.0 | 0.00 | 0.00 | 0.00 | 90 | 1015.8 |
| 20260504040547 | 44 | 302 | 2.0 | 8.0 | 0.00 | 0.00 | 0.00 | 90 | 1015.8 |
| 20260504040059 | 44 | 0 | 1.0 | 5.0 | 0.00 | 0.00 | 0.00 | 90 | 1015.8 |
| 20260504035545 | 44 | 84 | 0.0 | 10.0 | 0.00 | 0.00 | 0.00 | 90 | 1016.0 |
| 20260504035044 | 44 | 246 | 3.0 | 10.0 | 0.00 | 0.00 | 0.00 | 90 | 1016.0 |
| 20260504034549 | 44 | 148 | 1.0 | 8.0 | 0.00 | 0.00 | 0.00 | 90 | 1016.0 |
| 20260504034047 | 44 | 26 | 1.0 | 8.0 | 0.00 | 0.00 | 0.00 | 90 | 1015.9 |
| 20260504033545 | 44 | 0 | 2.0 | 8.0 | 0.00 | 0.00 | 0.00 | 90 | 1016.1 |
| 20260504033057 | 44 | 309 | 3.0 | 8.0 | 0.00 | 0.00 | 0.00 | 90 | 1015.8 |
| 20260504032545 | 45 | 0 | 1.0 | 4.0 | 0.00 | 0.00 | 0.00 | 90 | 1015.9 |
| 20260504032050 | 45 | 92 | 1.0 | 3.0 | 0.00 | 0.00 | 0.00 | 90 | 1015.9 |
| 20260504031559 | 45 | 0 | 0.0 | 4.0 | 0.00 | 0.00 | 0.00 | 90 | 1015.9 |
| 20260504031048 | 45 | 50 | 1.0 | 4.0 | 0.00 | 0.00 | 0.00 | 90 | 1015.7 |
| 20260504030548 | 45 | 155 | 1.0 | 6.0 | 0.00 | 0.00 | 0.00 | 90 | 1015.6 |
| 20260504030058 | 45 | 78 | 1.0 | 9.0 | 0.00 | 0.00 | 0.00 | 90 | 1015.6 |
| 20260504025548 | 45 | 59 | 2.0 | 9.0 | 0.00 | 0.00 | 0.00 | 89 | 1015.6 |
| 20260504025243 | 45 | 19 | 1.0 | 8.0 | 0.00 | 0.00 | 0.00 | 89 | 1015.6 |
| 20260504024553 | 45 | 60 | 0.0 | 4.0 | 0.00 | 0.00 | 0.00 | 89 | 1015.7 |
| 20260504024048 | 45 | 0 | 1.0 | 4.0 | 0.00 | 0.00 | 0.00 | 89 | 1015.7 |
| 20260504023548 | 46 | 0 | 1.0 | 4.0 | 0.00 | 0.00 | 0.00 | 89 | 1015.8 |
| 20260504023059 | 46 | 279 | 1.0 | 5.0 | 0.00 | 0.00 | 0.00 | 89 | 1015.7 |
| 20260504022546 | 46 | 134 | 1.0 | 5.0 | 0.00 | 0.00 | 0.00 | 89 | 1015.9 |
| 20260504022047 | 46 | 36 | 0.0 | 4.0 | 0.00 | 0.00 | 0.00 | 88 | 1015.9 |
| 20260504021548 | 46 | 0 | 1.0 | 4.0 | 0.00 | 0.00 | 0.00 | 88 | 1015.7 |
| 20260504021046 | 47 | 57 | 1.0 | 8.0 | 0.00 | 0.00 | 0.00 | 87 | 1015.7 |
| 20260504020548 | 47 | 320 | 1.0 | 8.0 | 0.00 | 0.00 | 0.00 | 86 | 1015.7 |
| 20260504020047 | 48 | 0 | 1.0 | 6.0 | 0.00 | 0.00 | 0.00 | 86 | 1015.7 |
| 20260504015548 | 48 | 289 | 2.0 | 5.0 | 0.00 | 0.00 | 0.00 | 85 | 1015.6 |
| 20260504015048 | 49 | 44 | 1.0 | 4.0 | 0.00 | 0.00 | 0.00 | 85 | 1015.6 |
| 20260504014558 | 49 | 145 | 1.0 | 4.0 | 0.00 | 0.00 | 0.00 | 85 | 1015.8 |
| 20260504014050 | 50 | 63 | 0.0 | 7.0 | 0.00 | 0.00 | 0.00 | 85 | 1015.6 |
| 20260504013548 | 50 | 196 | 1.0 | 7.0 | 0.00 | 0.00 | 0.00 | 85 | 1015.4 |
| 20260504013053 | 50 | 140 | 3.0 | 9.0 | 0.00 | 0.00 | 0.00 | 85 | 1015.4 |
| 20260504012548 | 50 | 120 | 1.0 | 9.0 | 0.00 | 0.00 | 0.00 | 85 | 1015.4 |
| 20260504012048 | 50 | 113 | 1.0 | 8.0 | 0.00 | 0.00 | 0.00 | 85 | 1015.4 |
| 20260504011553 | 50 | 175 | 2.0 | 9.0 | 0.00 | 0.00 | 0.00 | 85 | 1015.4 |
| 20260504011047 | 50 | 90 | 2.0 | 9.0 | 0.00 | 0.00 | 0.00 | 85 | 1015.6 |
| 20260504010544 | 51 | 195 | 1.0 | 6.0 | 0.00 | 0.00 | 0.00 | 85 | 1015.3 |
| 20260504010111 | 51 | 173 | 1.0 | 11.0 | 0.00 | 0.00 | 0.00 | 85 | 1015.4 |
| 20260504005547 | 51 | 140 | 0.0 | 11.0 | 0.00 | 0.00 | 0.00 | 85 | 1015.2 |
| 20260504005044 | 51 | 178 | 2.0 | 6.0 | 0.00 | 0.00 | 0.00 | 85 | 1015.7 |
| 20260504004553 | 51 | 140 | 1.0 | 5.0 | 0.00 | 0.00 | 0.00 | 84 | 1015.3 |
| 20260504004051 | 52 | 180 | 0.0 | 4.0 | 0.00 | 0.00 | 0.00 | 84 | 1015.3 |
| 20260504003548 | 52 | 87 | 0.0 | 10.0 | 0.00 | 0.00 | 0.00 | 83 | 1015.3 |
| 20260504003051 | 52 | 0 | 1.0 | 10.0 | 0.00 | 0.00 | 0.00 | 83 | 1015.2 |
| 20260504002547 | 52 | 79 | 2.0 | 7.0 | 0.00 | 0.00 | 0.00 | 82 | 1015.2 |
| 20260504002048 | 53 | 228 | 0.0 | 7.0 | 0.00 | 0.00 | 0.00 | 82 | 1015.2 |
| 20260504001601 | 53 | 152 | 2.0 | 7.0 | 0.00 | 0.00 | 0.00 | 82 | 1015.2 |
| 20260504001048 | 53 | 159 | 1.0 | 9.0 | 0.00 | 0.00 | 0.00 | 81 | 1015.0 |
| 20260504000550 | 54 | 0 | 2.0 | 9.0 | 0.00 | 0.00 | 0.00 | 80 | 1015.1 |
| 20260504000057 | 54 | 200 | 2.0 | 8.0 | 0.00 | 0.00 | 0.00 | 80 | 1015.3 |
| 20260503235551 | 54 | 177 | 1.0 | 6.0 | 0.00 | 0.00 | 0.00 | 81 | 1015.0 |
| 20260503235048 | 53 | 179 | 1.0 | 7.0 | 0.00 | 0.00 | 0.00 | 82 | 1015.1 |
| 20260503234550 | 53 | 138 | 1.0 | 7.0 | 0.00 | 0.00 | 0.00 | 81 | 1015.2 |
| 20260503234048 | 53 | 228 | 2.0 | 8.0 | 0.00 | 0.00 | 0.00 | 81 | 1015.3 |
| 20260503233548 | 53 | 181 | 2.0 | 8.0 | 0.00 | 0.00 | 0.00 | 81 | 1015.3 |
| 20260503233100 | 53 | 0 | 1.0 | 12.0 | 0.00 | 0.00 | 0.00 | 81 | 1015.4 |
| 20260503232544 | 53 | 141 | 3.0 | 12.0 | 0.00 | 0.00 | 0.00 | 81 | 1015.4 |
| 20260503232047 | 53 | 169 | 3.0 | 9.0 | 0.00 | 0.00 | 0.00 | 80 | 1015.5 |
| 20260503231552 | 53 | 162 | 1.0 | 6.0 | 0.00 | 0.00 | 0.00 | 82 | 1015.5 |
| 20260503231044 | 53 | 138 | 2.0 | 7.0 | 0.00 | 0.00 | 0.00 | 82 | 1015.5 |
| 20260503230549 | 53 | 0 | 2.0 | 7.0 | 0.00 | 0.00 | 0.00 | 83 | 1015.6 |
| 20260503230055 | 53 | 201 | 2.0 | 7.0 | 0.00 | 0.00 | 0.00 | 83 | 1015.7 |
| 20260503225549 | 53 | 137 | 1.0 | 6.0 | 0.00 | 0.00 | 0.00 | 84 | 1015.6 |
| 20260503225048 | 53 | 125 | 2.0 | 6.0 | 0.00 | 0.00 | 0.00 | 84 | 1015.6 |
| 20260503224556 | 53 | 208 | 2.0 | 6.0 | 0.00 | 0.00 | 0.00 | 83 | 1015.6 |
| 20260503224048 | 53 | 270 | 1.0 | 9.0 | 0.00 | 0.00 | 0.00 | 83 | 1015.6 |
| 20260503223548 | 53 | 44 | 1.0 | 9.0 | 0.00 | 0.00 | 0.00 | 84 | 1015.7 |
| 20260503223051 | 53 | 56 | 2.0 | 7.0 | 0.00 | 0.00 | 0.00 | 83 | 1015.7 |
| 20260503222548 | 53 | 163 | 1.0 | 6.0 | 0.00 | 0.00 | 0.00 | 84 | 1015.7 |
| 20260503222047 | 53 | 178 | 1.0 | 9.0 | 0.00 | 0.00 | 0.00 | 82 | 1015.7 |
| 20260503221600 | 54 | 209 | 1.0 | 9.0 | 0.00 | 0.00 | 0.00 | 82 | 1015.8 |
| 20260503221044 | 54 | 288 | 2.0 | 7.0 | 0.00 | 0.00 | 0.00 | 82 | 1015.9 |
| 20260503220547 | 54 | 171 | 3.0 | 7.0 | 0.00 | 0.00 | 0.00 | 82 | 1015.9 |
| 20260503220105 | 54 | 181 | 1.0 | 7.0 | 0.00 | 0.00 | 0.00 | 82 | 1015.8 |
| 20260503215547 | 54 | 92 | 3.0 | 7.0 | 0.00 | 0.00 | 0.00 | 81 | 1015.9 |
| 20260503215048 | 55 | 150 | 2.0 | 5.0 | 0.00 | 0.00 | 0.00 | 81 | 1015.9 |
| 20260503214554 | 55 | 148 | 1.0 | 7.0 | 0.00 | 0.00 | 0.00 | 81 | 1015.9 |
| 20260503214049 | 55 | 114 | 1.0 | 10.0 | 0.00 | 0.00 | 0.00 | 80 | 1015.9 |
| 20260503213550 | 55 | 186 | 2.0 | 10.0 | 0.00 | 0.00 | 0.00 | 80 | 1015.9 |
| 20260503213052 | 55 | 148 | 1.0 | 5.0 | 0.00 | 0.00 | 0.00 | 80 | 1015.9 |
| 20260503212549 | 55 | 111 | 1.0 | 4.0 | 0.00 | 0.00 | 0.00 | 78 | 1016.0 |
| 20260503212047 | 55 | 153 | 0.0 | 9.0 | 0.00 | 0.00 | 0.00 | 79 | 1016.1 |
| 20260503211552 | 55 | 90 | 2.0 | 9.0 | 0.00 | 0.00 | 0.00 | 78 | 1016.1 |
| 20260503211046 | 55 | 145 | 2.0 | 6.0 | 0.00 | 0.00 | 0.00 | 80 | 1016.2 |
| 20260503210547 | 55 | 92 | 2.0 | 6.0 | 0.00 | 0.00 | 0.00 | 78 | 1016.3 |
| 20260503210055 | 54 | 0 | 1.0 | 6.0 | 0.00 | 0.00 | 0.00 | 80 | 1016.3 |
| 20260503205544 | 54 | 178 | 1.0 | 10.0 | 0.00 | 0.00 | 0.00 | 81 | 1016.4 |
| 20260503205043 | 54 | 186 | 2.0 | 10.0 | 0.00 | 0.00 | 0.00 | 82 | 1016.4 |
| 20260503204602 | 54 | 207 | 1.0 | 4.0 | 0.00 | 0.00 | 0.00 | 82 | 1016.4 |
| 20260503204048 | 54 | 148 | 1.0 | 7.0 | 0.00 | 0.00 | 0.00 | 82 | 1016.4 |
| 20260503203545 | 54 | 115 | 1.0 | 8.0 | 0.00 | 0.00 | 0.00 | 83 | 1016.5 |
| 20260503203100 | 54 | 344 | 2.0 | 8.0 | 0.00 | 0.00 | 0.00 | 81 | 1016.5 |
| 20260503202546 | 55 | 219 | 1.0 | 4.0 | 0.00 | 0.00 | 0.00 | 80 | 1016.5 |
| 20260503202046 | 55 | 148 | 1.0 | 4.0 | 0.00 | 0.00 | 0.00 | 79 | 1016.5 |
| 20260503201554 | 55 | 202 | 1.0 | 7.0 | 0.00 | 0.00 | 0.00 | 79 | 1016.7 |
| 20260503201045 | 55 | 192 | 0.0 | 7.0 | 0.00 | 0.00 | 0.00 | 79 | 1016.7 |
| 20260503200545 | 55 | 166 | 2.0 | 10.0 | 0.00 | 0.00 | 0.00 | 78 | 1016.8 |
| 20260503200051 | 56 | 97 | 1.0 | 10.0 | 0.00 | 0.00 | 0.00 | 78 | 1016.8 |
| 20260503195546 | 57 | 186 | 2.0 | 6.0 | 0.00 | 0.00 | 0.00 | 77 | 1016.8 |
| 20260503195045 | 57 | 141 | 2.0 | 10.0 | 0.00 | 0.00 | 0.00 | 76 | 1016.7 |
| 20260503194611 | 58 | 309 | 2.0 | 10.0 | 0.00 | 0.00 | 0.00 | 73 | 1016.8 |
| 20260503194044 | 59 | 144 | 1.0 | 10.0 | 0.00 | 0.00 | 0.00 | 73 | 1016.8 |
| 20260503193545 | 60 | 143 | 3.0 | 10.0 | 0.00 | 0.00 | 0.00 | 71 | 1016.8 |
| 20260503193054 | 62 | 210 | 3.0 | 9.0 | 0.00 | 0.00 | 0.00 | 69 | 1016.8 |
| 20260503192544 | 62 | 0 | 3.0 | 6.0 | 0.00 | 0.00 | 0.00 | 68 | 1016.7 |
| 20260503192046 | 63 | 169 | 3.0 | 7.0 | 0.00 | 0.00 | 0.00 | 66 | 1016.7 |
| 20260503191558 | 64 | 189 | 2.0 | 7.0 | 0.00 | 0.00 | 0.00 | 66 | 1016.5 |
| 20260503191046 | 64 | 186 | 3.0 | 6.0 | 0.00 | 0.00 | 0.00 | 63 | 1016.5 |
| 20260503190546 | 64 | 158 | 2.0 | 6.0 | 0.00 | 0.00 | 0.00 | 61 | 1016.4 |
| 20260503190059 | 65 | 152 | 1.0 | 7.0 | 0.00 | 0.00 | 0.00 | 60 | 1016.5 |
| 20260503185545 | 65 | 221 | 2.0 | 9.0 | 0.00 | 0.00 | 0.00 | 55 | 1016.5 |
| 20260503185044 | 66 | 174 | 3.0 | 9.0 | 0.00 | 0.00 | 0.00 | 54 | 1016.4 |
| 20260503184557 | 65 | 178 | 2.0 | 8.0 | 0.00 | 0.00 | 0.00 | 51 | 1016.4 |
| 20260503184044 | 66 | 161 | 2.0 | 8.0 | 0.00 | 0.00 | 0.00 | 55 | 1016.5 |
| 20260503183544 | 65 | 176 | 3.0 | 7.0 | 0.00 | 0.00 | 0.00 | 49 | 1016.5 |
| 20260503183104 | 65 | 196 | 1.0 | 6.0 | 0.00 | 0.00 | 0.00 | 53 | 1016.6 |
| 20260503182543 | 65 | 184 | 2.0 | 6.0 | 0.00 | 0.00 | 0.00 | 54 | 1016.5 |
| 20260503182046 | 65 | 153 | 1.0 | 5.0 | 0.00 | 0.00 | 0.00 | 52 | 1016.6 |
| 20260503181558 | 64 | 179 | 1.0 | 4.0 | 0.00 | 0.00 | 0.00 | 51 | 1016.6 |
| 20260503181047 | 63 | 0 | 0.0 | 3.0 | 0.00 | 0.00 | 0.00 | 57 | 1016.7 |
| 20260503180547 | 63 | 0 | 1.0 | 5.0 | 0.00 | 0.00 | 0.00 | 62 | 1016.7 |
| 20260503180105 | 62 | 0 | 1.0 | 5.0 | 0.00 | 0.00 | 0.00 | 62 | 1016.8 |
| 20260503175546 | 62 | 153 | 1.0 | 5.0 | 0.00 | 0.00 | 0.00 | 63 | 1017.0 |
| 20260503175045 | 62 | 165 | 1.0 | 3.0 | 0.00 | 0.00 | 0.00 | 63 | 1016.9 |
| 20260503174551 | 62 | 140 | 1.0 | 3.0 | 0.00 | 0.00 | 0.00 | 64 | 1017.0 |
| 20260503174045 | 62 | 163 | 0.0 | 3.0 | 0.00 | 0.00 | 0.00 | 65 | 1017.0 |
| 20260503173546 | 62 | 118 | 0.0 | 6.0 | 0.00 | 0.00 | 0.00 | 65 | 1016.9 |
| 20260503173142 | 62 | 0 | 2.0 | 6.0 | 0.00 | 0.00 | 0.00 | 65 | 1016.9 |
| 20260503172544 | 63 | 146 | 1.0 | 3.0 | 0.00 | 0.00 | 0.00 | 63 | 1016.8 |
| 20260503172044 | 63 | 146 | 1.0 | 4.0 | 0.00 | 0.00 | 0.00 | 61 | 1016.8 |
| 20260503171550 | 63 | 116 | 1.0 | 5.0 | 0.00 | 0.00 | 0.00 | 61 | 1016.8 |
| 20260503171045 | 62 | 161 | 1.0 | 5.0 | 0.00 | 0.00 | 0.00 | 62 | 1016.7 |
| 20260503170547 | 62 | 161 | 1.0 | 4.0 | 0.00 | 0.00 | 0.00 | 62 | 1016.6 |
| 20260503150548 | 46 | 0 | 0.0 | 3.0 | 0.00 | 0.00 | 0.00 | 85 | 1016.4 |
| 20260503140106 | 45 | 0 | 0.0 | 3.0 | 0.00 | 0.00 | 0.00 | 80 | 1016.3 |
| 20260503131045 | 49 | 0 | 0.0 | 1.0 | 0.00 | 0.00 | 0.00 | 58 | 1015.3 |
| 20260503130545 | 50 | 0 | 0.0 | 1.0 | 0.00 | 0.00 | 0.00 | 58 | 1015.1 |
| 20260503130104 | 50 | 30 | 0.0 | 1.0 | 0.00 | 0.00 | 0.00 | 60 | 1014.9 |